User: anonymous   Login
Location: Unspecified
(0.0000°N, 0.0000°E)
Time: 21:06:39
(UTC+00:00)
Language:

Vanguard 3 - Orbit

View from above orbital plane
View from above orbital plane
View from above satellite
View from above satellite

Ground track
Ground track

The orbit data is extracted from the following two-line orbital elements,

1 00020U 59007A   18112.41671660  .00000218  00000-0  96373-4 0  9990
2 00020  33.3413 105.5920 1667674  52.1698 321.8473 11.55570133139575
Epoch (UTC): 22 April 2018 10:00:04
Eccentricity: 0.1667674
inclination: 33.3413°
perigee height: 508 km
apogee height: 3264 km
right ascension of ascending node: 105.5920°
argument of perigee: 52.1698°
revolutions per day: 11.55570133
mean anomaly at epoch: 321.8473°
orbit number at epoch: 13957

The dashed part of the orbit path shows where the satellite is in the earth's shadow,  

DLR